Location: Unspecified
(0.0000°N, 0.0000°E)
Time: 22:28:43
(UTC+00:00)

Transit 2A Rocket - All Passes

Search period start: 04 July 2015 00:00
Search period end: 14 July 2015 00:00
Orbit: 589 x 917 km, 66.7° (Epoch: 04 July)

Date Brightness Start Highest point End Pass type
(mag) Time Alt. Az. Time Alt. Az. Time Alt. Az.
04 Jul - 02:16:21 10° SSW 02:22:21 69° WNW 02:28:25 10° NNE visible
04 Jul - 13:07:37 10° NNE 13:10:14 16° ENE 13:13:01 10° ESE daylight
04 Jul - 14:49:38 10° WNW 14:52:41 18° WSW 14:55:35 10° SSW daylight
05 Jul - 01:34:19 10° S 01:40:16 62° ESE 01:46:18 10° NNE visible
05 Jul - 03:21:20 10° W 03:23:04 11° WNW 03:24:12 10° NW visible
05 Jul - 14:06:28 10° NW 14:10:34 43° WSW 14:14:37 10° S daylight
06 Jul - 00:52:55 10° S 00:58:09 32° ESE 01:03:33 10° NE night (unlit)
06 Jul - 02:36:02 10° WSW 02:40:46 22° WNW 02:45:15 10° NNW visible
06 Jul - 13:24:13 10° NNW 13:28:31 74° ENE 13:32:46 10° SSE daylight
07 Jul - 00:12:27 10° SSE 00:15:56 17° ESE 00:19:49 10° ENE night (unlit)
07 Jul - 01:52:51 10° SW 01:58:34 43° WNW 02:04:16 10° N night (unlit)
07 Jul - 12:42:42 10° N 12:46:25 29° ENE 12:50:11 10° SE daylight
08 Jul - 01:10:24 10° SSW 01:16:28 83° WNW 01:22:34 10° NNE night (unlit)
08 Jul - 12:02:30 10° NE 12:04:14 13° ENE 12:06:15 10° E daylight
08 Jul - 13:43:15 10° WNW 13:46:42 23° WSW 13:50:05 10° SSW daylight
09 Jul - 00:28:32 10° S 00:34:22 51° ESE 00:40:17 10° NE night (unlit)
09 Jul - 02:13:56 10° W 02:17:05 14° WNW 02:19:45 10° NW night (unlit)
09 Jul - 13:00:24 10° NNW 13:04:36 57° WSW 13:08:48 10° S daylight
09 Jul - 23:47:20 10° SSE 23:52:13 27° ESE 23:57:19 10° NE night (unlit)
10 Jul - 01:29:42 10° SW 01:34:49 27° WNW 01:39:45 10° NNW night (unlit)
10 Jul - 12:18:21 10° N 12:22:33 56° ENE 12:26:44 10° SSE daylight
10 Jul - 23:07:24 10° SE 23:09:58 13° ESE 23:13:01 10° E night (unlit)
11 Jul - 00:46:45 10° SW 00:52:39 52° WNW 00:58:32 10° N night (unlit)
11 Jul - 11:37:05 10° NNE 11:40:26 23° ENE 11:43:53 10° ESE daylight
11 Jul - 13:20:51 10° W 13:22:54 13° WSW 13:24:41 10° SW daylight
12 Jul - 00:04:29 10° SSW 00:10:33 82° ESE 00:16:39 10° NNE night (unlit)
12 Jul - 12:36:57 10° NW 12:40:43 30° WSW 12:44:27 10° S daylight
12 Jul - 23:22:48 10° S 23:28:27 42° ESE 23:34:11 10° NE night (unlit)
13 Jul - 01:07:09 10° WSW 01:11:06 17° WNW 01:14:41 10° NNW night (unlit)
13 Jul - 11:54:22 10° NNW 11:58:38 75° WSW 12:02:55 10° SSE daylight
13 Jul - 22:41:49 10° SSE 22:46:15 22° ESE 22:50:58 10° ENE night (unlit)
